TimePDT,TemperatureF,Dew PointF,Humidity,Sea Level PressureIn,VisibilityMPH,Wind Direction,Wind SpeedMPH,Gust SpeedMPH,PrecipitationIn,Events,Conditions,WindDirDegrees,DateUTC
12:15 AM,48.2,44.6,87,30.20,10.0,Calm,Calm,-,N/A,,Overcast,0,2013-04-03 07:15:00
12:35 AM,48.2,44.6,87,30.20,10.0,NW,3.5,-,N/A,,Overcast,320,2013-04-03 07:35:00
12:55 AM,48.2,44.6,87,30.20,10.0,Calm,Calm,-,N/A,,Overcast,0,2013-04-03 07:55:00
1:15 AM,48.2,42.8,82,30.20,10.0,Calm,Calm,-,N/A,,Overcast,0,2013-04-03 08:15:00
1:35 AM,48.2,42.8,82,30.20,10.0,Calm,Calm,-,N/A,,Overcast,0,2013-04-03 08:35:00
1:55 AM,48.2,44.6,87,30.20,10.0,Calm,Calm,-,N/A,,Overcast,0,2013-04-03 08:55:00
2:15 AM,48.2,42.8,82,30.20,10.0,Calm,Calm,-,N/A,,Overcast,0,2013-04-03 09:15:00
2:35 AM,48.2,42.8,82,30.19,10.0,Calm,Calm,-,N/A,,Overcast,0,2013-04-03 09:35:00
2:55 AM,48.2,42.8,82,30.19,10.0,Calm,Calm,-,N/A,,Overcast,0,2013-04-03 09:55:00
3:15 AM,48.2,42.8,82,30.19,10.0,Calm,Calm,-,N/A,,Overcast,0,2013-04-03 10:15:00
3:35 AM,48.2,42.8,82,30.19,10.0,Calm,Calm,-,N/A,,Overcast,0,2013-04-03 10:35:00
3:55 AM,48.2,42.8,82,30.19,10.0,Calm,Calm,-,N/A,,Overcast,0,2013-04-03 10:55:00
4:15 AM,48.2,42.8,82,30.18,10.0,Calm,Calm,-,N/A,,Overcast,0,2013-04-03 11:15:00
4:35 AM,48.2,42.8,82,30.18,10.0,Calm,Calm,-,N/A,,Overcast,0,2013-04-03 11:35:00
4:55 AM,48.2,44.6,87,30.18,10.0,Calm,Calm,-,N/A,,Overcast,0,2013-04-03 11:55:00
5:15 AM,48.2,42.8,82,30.17,10.0,Calm,Calm,-,N/A,,Overcast,0,2013-04-03 12:15:00
5:35 AM,48.2,42.8,82,30.17,10.0,Calm,Calm,-,N/A,,Overcast,0,2013-04-03 12:35:00
5:55 AM,50.0,44.6,82,30.16,10.0,Calm,Calm,-,N/A,,Overcast,0,2013-04-03 12:55:00
6:15 AM,48.2,44.6,87,30.16,10.0,Calm,Calm,-,N/A,,Overcast,0,2013-04-03 13:15:00
6:35 AM,48.2,44.6,87,30.16,10.0,NNW,3.5,-,N/A,,Overcast,340,2013-04-03 13:35:00
6:55 AM,48.2,42.8,82,30.16,10.0,Calm,Calm,-,N/A,,Overcast,0,2013-04-03 13:55:00
7:15 AM,48.2,42.8,82,30.16,10.0,Calm,Calm,-,N/A,,Overcast,0,2013-04-03 14:15:00
7:35 AM,50.0,44.6,82,30.16,10.0,Calm,Calm,-,N/A,,Overcast,0,2013-04-03 14:35:00
7:55 AM,50.0,44.6,82,30.16,10.0,Calm,Calm,-,N/A,,Overcast,0,2013-04-03 14:55:00
8:15 AM,50.0,44.6,82,30.15,10.0,Calm,Calm,-,N/A,,Overcast,0,2013-04-03 15:15:00
8:35 AM,50.0,44.6,82,30.15,10.0,Calm,Calm,-,N/A,,Overcast,0,2013-04-03 15:35:00
8:55 AM,51.8,44.6,76,30.14,10.0,Calm,Calm,-,N/A,,Overcast,0,2013-04-03 15:55:00
9:15 AM,51.8,44.6,76,30.14,10.0,Calm,Calm,-,N/A,,Overcast,0,2013-04-03 16:15:00
9:35 AM,51.8,44.6,76,30.14,10.0,Calm,Calm,-,N/A,,Overcast,0,2013-04-03 16:35:00
9:55 AM,51.8,44.6,76,30.15,10.0,Calm,Calm,-,N/A,,Overcast,0,2013-04-03 16:55:00
10:15 AM,51.8,44.6,76,30.15,10.0,Calm,Calm,-,N/A,,Overcast,0,2013-04-03 17:15:00
10:35 AM,53.6,44.6,72,30.15,10.0,Calm,Calm,-,N/A,,Mostly Cloudy,0,2013-04-03 17:35:00
10:55 AM,53.6,46.4,77,30.14,10.0,Calm,Calm,-,N/A,,Partly Cloudy,0,2013-04-03 17:55:00
11:15 AM,55.4,46.4,72,30.13,10.0,South,3.5,-,N/A,,Clear,180,2013-04-03 18:15:00
11:35 AM,57.2,46.4,67,30.13,10.0,South,3.5,-,N/A,,Clear,180,2013-04-03 18:35:00
11:55 AM,57.2,46.4,67,30.13,10.0,Calm,Calm,-,N/A,,Clear,0,2013-04-03 18:55:00
12:15 PM,59.0,46.4,63,30.13,10.0,Calm,Calm,-,N/A,,Clear,0,2013-04-03 19:15:00
12:35 PM,60.8,46.4,59,30.12,10.0,South,4.6,-,N/A,,Clear,180,2013-04-03 19:35:00
12:55 PM,60.8,46.4,59,30.12,10.0,South,3.5,-,N/A,,Clear,180,2013-04-03 19:55:00
1:15 PM,62.6,46.4,55,30.11,10.0,South,4.6,-,N/A,,Clear,180,2013-04-03 20:15:00
1:35 PM,62.6,46.4,55,30.10,10.0,Calm,Calm,-,N/A,,Clear,0,2013-04-03 20:35:00
1:55 PM,62.6,46.4,55,30.10,10.0,Calm,Calm,-,N/A,,Clear,0,2013-04-03 20:55:00
2:15 PM,64.4,46.4,52,30.09,10.0,SW,3.5,-,N/A,,Clear,220,2013-04-03 21:15:00
2:35 PM,64.4,46.4,52,30.09,10.0,South,4.6,-,N/A,,Clear,180,2013-04-03 21:35:00
2:55 PM,64.4,46.4,52,30.08,10.0,South,3.5,-,N/A,,Clear,190,2013-04-03 21:55:00
3:15 PM,62.6,46.4,55,30.08,10.0,Calm,Calm,-,N/A,,Clear,0,2013-04-03 22:15:00
3:35 PM,64.4,46.4,52,30.07,10.0,Calm,Calm,-,N/A,,Clear,0,2013-04-03 22:35:00
3:55 PM,64.4,46.4,52,30.06,10.0,Calm,Calm,-,N/A,,Clear,0,2013-04-03 22:55:00
4:15 PM,64.4,46.4,52,30.05,10.0,Calm,Calm,-,N/A,,Clear,0,2013-04-03 23:15:00
4:35 PM,64.4,46.4,52,30.04,10.0,Calm,Calm,-,N/A,,Clear,0,2013-04-03 23:35:00
4:55 PM,64.4,48.2,56,30.03,10.0,Calm,Calm,-,N/A,,Clear,0,2013-04-03 23:55:00
5:15 PM,64.4,48.2,56,30.02,10.0,Calm,Calm,-,N/A,,Clear,0,2013-04-04 00:15:00
5:35 PM,64.4,48.2,56,30.01,10.0,Calm,Calm,-,N/A,,Clear,0,2013-04-04 00:35:00
5:55 PM,64.4,48.2,56,30.00,10.0,West,3.5,-,N/A,,Clear,260,2013-04-04 00:55:00
6:15 PM,64.4,46.4,52,29.99,10.0,Calm,Calm,-,N/A,,Scattered Clouds,0,2013-04-04 01:15:00
6:35 PM,64.4,48.2,56,29.98,10.0,Calm,Calm,-,N/A,,Partly Cloudy,0,2013-04-04 01:35:00
6:55 PM,64.4,46.4,52,29.98,10.0,Calm,Calm,-,N/A,,Scattered Clouds,0,2013-04-04 01:55:00
7:15 PM,62.6,48.2,59,29.98,10.0,Calm,Calm,-,N/A,,Overcast,0,2013-04-04 02:15:00
7:35 PM,60.8,46.4,59,29.97,10.0,Calm,Calm,-,N/A,,Mostly Cloudy,0,2013-04-04 02:35:00
7:55 PM,60.8,46.4,59,29.97,10.0,Calm,Calm,-,N/A,,Scattered Clouds,0,2013-04-04 02:55:00
8:15 PM,59.0,48.2,67,29.96,10.0,Calm,Calm,-,N/A,,Overcast,0,2013-04-04 03:15:00
8:35 PM,59.0,48.2,67,29.96,10.0,Calm,Calm,-,N/A,,Overcast,0,2013-04-04 03:35:00
8:55 PM,57.2,48.2,72,29.96,10.0,Calm,Calm,-,N/A,,Overcast,0,2013-04-04 03:55:00
9:15 PM,57.2,48.2,72,29.96,10.0,Calm,Calm,-,N/A,,Overcast,0,2013-04-04 04:15:00
9:35 PM,57.2,48.2,72,29.96,10.0,Calm,Calm,-,N/A,,Overcast,0,2013-04-04 04:35:00
9:55 PM,57.2,48.2,72,29.95,10.0,Calm,Calm,-,N/A,,Mostly Cloudy,0,2013-04-04 04:55:00
10:15 PM,57.2,48.2,72,29.95,10.0,Calm,Calm,-,N/A,,Partly Cloudy,0,2013-04-04 05:15:00
10:35 PM,55.4,48.2,77,29.94,10.0,Calm,Calm,-,N/A,,Partly Cloudy,0,2013-04-04 05:35:00
10:55 PM,55.4,48.2,77,29.94,10.0,Calm,Calm,-,N/A,,Partly Cloudy,0,2013-04-04 05:55:00
11:15 PM,55.4,48.2,77,29.94,10.0,Calm,Calm,-,N/A,,Scattered Clouds,0,2013-04-04 06:15:00
11:35 PM,55.4,48.2,77,29.93,10.0,Calm,Calm,-,N/A,,Mostly Cloudy,0,2013-04-04 06:35:00
11:55 PM,55.4,48.2,77,29.92,10.0,Calm,Calm,-,N/A,,Overcast,0,2013-04-04 06:55:00